2024-105E (59921 NORAD) Tracking and Keplerian Element Data

This shows tracking and keplerian element data for the satellite.

Feedback or suggestion? Click here.




ElementValue
Catalog59921
Name2024-105E
Epoch Orbit125
Epoch Day160.24922057
Epoch Year2024
RAAN166.6379
Inclination97.5982
Eccentricity0.0013608
Argument of Perigee256.4965
Mean Anonmoly103.4747
Mean Motion15.09443815
Decay Rate7.007E-05
L11 59921U 24105E 24160.24922057 .00007007 00000+0 44085-3 0 9999
L22 59921 97.5982 166.6379 0013608 256.4965 103.4747 15.09443815 1255



Live tracking and technical data element details for 2024-105E (NORAD 59921). 2024-105E can be tracked NOW for your location showing map with azimuth and elevation plus other details from your city location.







IsCatalogInMostPopularTable: catalog: 59921, numindb: 7
Update: records affected: 1



GetName: 59921 2024-105E

Hit Count: updated at: Tue, 16 Jul 2024 03:02:27 GMT